| time (UTC) | temp F | wind direction | speed MPH | gust MPH | rain 1hr in | rain 24hr in | rain mn in | humidity % | barometer mb |
| 20260903103027 | 70 | 176 | 0.0 | 0.0 | 0.00 | 0.48 | 0.00 | 95 | 1018.9 |
| 20260903101539 | 70 | 176 | 0.0 | 0.0 | 0.00 | 0.48 | 0.00 | 95 | 1018.7 |
| 20260903100027 | 70 | 176 | 0.0 | 0.0 | 0.00 | 0.48 | 0.00 | 95 | 1018.6 |
| 20260903094513 | 70 | 177 | 0.0 | 0.0 | 0.00 | 0.48 | 0.00 | 95 | 1018.6 |
| 20260903093012 | 70 | 177 | 0.0 | 2.0 | 0.00 | 0.48 | 0.00 | 95 | 1018.6 |
| 20260903091531 | 70 | 179 | 0.0 | 0.0 | 0.00 | 0.48 | 0.00 | 95 | 1018.3 |
| 20260903090028 | 70 | 179 | 0.0 | 0.0 | 0.00 | 0.48 | 0.00 | 95 | 1018.2 |
| 20260903084531 | 70 | 179 | 0.0 | 0.0 | 0.00 | 0.48 | 0.00 | 95 | 1018.2 |
| 20260903083025 | 70 | 179 | 0.0 | 0.0 | 0.00 | 0.48 | 0.00 | 95 | 1018.1 |
| 20260903081516 | 70 | 179 | 0.0 | 0.0 | 0.00 | 0.48 | 0.00 | 95 | 1018.2 |
| 20260903080029 | 70 | 179 | 0.0 | 0.0 | 0.00 | 0.48 | 0.00 | 95 | 1018.3 |
| 20260903074530 | 70 | 179 | 0.0 | 0.0 | 0.00 | 0.48 | 0.00 | 95 | 1018.3 |
| 20260903073032 | 70 | 179 | 0.0 | 0.0 | 0.00 | 0.48 | 0.00 | 95 | 1018.3 |
| 20260903071528 | 69 | 179 | 0.0 | 0.0 | 0.00 | 0.48 | 0.00 | 95 | 1018.3 |
| 20260903070027 | 69 | 179 | 0.0 | 0.0 | 0.00 | 0.48 | 0.00 | 95 | 1018.0 |
| 20260903064517 | 69 | 179 | 0.0 | 0.0 | 0.00 | 0.48 | 0.00 | 95 | 1018.0 |
| 20260903063031 | 69 | 179 | 0.0 | 0.0 | 0.00 | 0.48 | 0.00 | 95 | 1017.8 |
| 20260903061533 | 69 | 179 | 0.0 | 0.0 | 0.00 | 0.48 | 0.00 | 95 | 1017.8 |
| 20260903060030 | 69 | 179 | 0.0 | 0.0 | 0.00 | 0.48 | 0.00 | 95 | 1018.0 |
| 20260903054527 | 69 | 179 | 0.0 | 0.0 | 0.00 | 0.48 | 0.00 | 94 | 1018.0 |
| 20260903053027 | 69 | 179 | 0.0 | 0.0 | 0.00 | 0.48 | 0.00 | 94 | 1018.2 |
| 20260903051523 | 69 | 179 | 0.0 | 0.0 | 0.00 | 0.48 | 0.00 | 94 | 1018.3 |
| 20260903050024 | 69 | 179 | 0.0 | 0.0 | 0.00 | 0.48 | 0.00 | 94 | 1018.2 |
| 20260903044522 | 70 | 179 | 0.0 | 0.0 | 0.00 | 0.48 | 0.00 | 94 | 1018.1 |
| 20260903043010 | 70 | 179 | 0.0 | 0.0 | 0.00 | 0.48 | 0.00 | 94 | 1018.3 |
| 20260903041512 | 70 | 179 | 0.0 | 0.0 | 0.00 | 0.48 | 0.00 | 94 | 1018.7 |
| 20260903040037 | 70 | 179 | 0.0 | 0.0 | 0.00 | 0.48 | 0.00 | 94 | 1018.8 |
| 20260903034527 | 70 | 179 | 0.0 | 0.0 | 0.00 | 0.48 | 0.48 | 94 | 1019.3 |
| 20260903033023 | 70 | 179 | 0.0 | 0.0 | 0.00 | 0.48 | 0.48 | 94 | 1019.3 |
| 20260903031517 | 70 | 179 | 0.0 | 0.0 | 0.00 | 0.48 | 0.48 | 94 | 1018.8 |
| 20260903030016 | 70 | 179 | 0.0 | 0.0 | 0.00 | 0.48 | 0.48 | 94 | 1018.8 |
| 20260903024512 | 70 | 179 | 0.0 | 0.0 | 0.00 | 0.48 | 0.48 | 94 | 1018.7 |
| 20260903023034 | 70 | 179 | 0.0 | 0.0 | 0.00 | 0.48 | 0.48 | 94 | 1018.9 |
| 20260903021531 | 70 | 179 | 0.0 | 0.0 | 0.00 | 0.48 | 0.48 | 94 | 1018.8 |
| 20260903020028 | 70 | 179 | 0.0 | 0.0 | 0.00 | 0.48 | 0.48 | 94 | 1018.8 |
| 20260903014523 | 70 | 179 | 0.0 | 0.0 | 0.00 | 0.48 | 0.48 | 94 | 1019.2 |
| 20260903013018 | 70 | 179 | 0.0 | 0.0 | 0.00 | 0.48 | 0.48 | 94 | 1018.9 |
| 20260903011514 | 70 | 179 | 0.0 | 0.0 | 0.00 | 0.48 | 0.48 | 94 | 1018.5 |
| 20260903010041 | 70 | 179 | 0.0 | 0.0 | 0.00 | 0.48 | 0.48 | 93 | 1018.5 |
| 20260903004526 | 70 | 179 | 0.0 | 0.0 | 0.00 | 0.48 | 0.48 | 93 | 1018.4 |
| 20260903003028 | 71 | 179 | 0.0 | 0.0 | 0.00 | 0.48 | 0.48 | 93 | 1018.7 |
| 20260903001533 | 71 | 179 | 0.0 | 0.0 | 0.00 | 0.48 | 0.48 | 93 | 1018.5 |
| 20260903000023 | 71 | 179 | 0.0 | 0.0 | 0.00 | 0.48 | 0.48 | 93 | 1018.6 |
| 20260902234535 | 71 | 179 | 0.0 | 0.0 | 0.00 | 0.48 | 0.48 | 92 | 1018.7 |
| 20260902233032 | 71 | 179 | 0.0 | 0.0 | 0.00 | 0.48 | 0.48 | 92 | 1018.8 |
| 20260902231532 | 72 | 179 | 0.0 | 0.0 | 0.00 | 0.48 | 0.48 | 92 | 1018.8 |
| 20260902230030 | 72 | 179 | 0.0 | 0.0 | 0.00 | 0.48 | 0.48 | 92 | 1018.6 |
| 20260902224529 | 72 | 179 | 0.0 | 0.0 | 0.00 | 0.48 | 0.48 | 91 | 1018.7 |
| 20260902223021 | 73 | 179 | 0.0 | 0.0 | 0.00 | 0.48 | 0.48 | 90 | 1018.8 |
| 20260902221538 | 73 | 179 | 0.0 | 0.0 | 0.00 | 0.48 | 0.48 | 91 | 1018.8 |
| 20260902220007 | 73 | 179 | 0.0 | 0.0 | 0.00 | 0.48 | 0.48 | 90 | 1018.9 |
| 20260902214506 | 73 | 179 | 0.0 | 0.0 | 0.00 | 0.48 | 0.48 | 91 | 1019.2 |
| 20260902213004 | 72 | 179 | 0.0 | 0.0 | 0.00 | 0.48 | 0.48 | 92 | 1019.5 |
| 20260902211510 | 72 | 179 | 0.0 | 0.0 | 0.00 | 0.48 | 0.48 | 92 | 1019.4 |
| 20260902210007 | 72 | 179 | 0.0 | 0.0 | 0.00 | 0.48 | 0.48 | 93 | 1019.5 |
| 20260902204508 | 72 | 179 | 0.0 | 0.0 | 0.00 | 0.48 | 0.48 | 93 | 1019.4 |
| 20260902203006 | 72 | 179 | 0.0 | 0.0 | 0.00 | 0.48 | 0.48 | 93 | 1019.2 |
| 20260902201512 | 72 | 179 | 0.0 | 0.0 | 0.00 | 0.48 | 0.48 | 93 | 1019.3 |
| 20260902200011 | 72 | 179 | 0.0 | 0.0 | 0.00 | 0.48 | 0.48 | 92 | 1019.5 |
| 20260902194512 | 71 | 179 | 0.0 | 0.0 | 0.00 | 0.48 | 0.48 | 92 | 1019.0 |
| 20260902193011 | 72 | 179 | 0.0 | 0.0 | 0.00 | 0.48 | 0.48 | 92 | 1018.7 |
| 20260902191511 | 72 | 179 | 0.0 | 0.0 | 0.00 | 0.48 | 0.48 | 93 | 1018.8 |
| 20260902190010 | 72 | 179 | 0.0 | 0.0 | 0.00 | 0.48 | 0.48 | 93 | 1019.4 |
| 20260902184512 | 71 | 179 | 0.0 | 0.0 | 0.00 | 0.48 | 0.48 | 94 | 1019.4 |
| 20260902183013 | 71 | 179 | 0.0 | 0.0 | 0.03 | 0.48 | 0.48 | 93 | 1019.9 |
| 20260902181514 | 70 | 179 | 0.0 | 0.0 | 0.23 | 0.48 | 0.48 | 93 | 1019.9 |
| 20260902180019 | 70 | 179 | 0.0 | 0.0 | 0.48 | 0.48 | 0.48 | 92 | 1020.4 |
| 20260902175527 | 71 | 179 | 0.0 | 0.0 | 0.48 | 0.48 | 0.48 | 92 | 1021.1 |
| 20260902175523 | 72 | 179 | 0.0 | 1.0 | 0.45 | 0.45 | 0.45 | 90 | 1022.1 |
| 20260902175520 | 75 | 304 | 1.0 | 6.0 | 0.25 | 0.25 | 0.25 | 85 | 1022.6 |
| 20260902170015 | 81 | 205 | 0.0 | 0.0 | 0.00 | 0.00 | 0.00 | 81 | 1021.5 |
| 20260902164511 | 82 | 203 | 0.0 | 0.0 | 0.00 | 0.00 | 0.00 | 80 | 1021.0 |
| 20260902163020 | 82 | 202 | 0.0 | 0.0 | 0.00 | 0.00 | 0.00 | 80 | 1020.4 |
| 20260902161529 | 82 | 202 | 0.0 | 0.0 | 0.00 | 0.00 | 0.00 | 81 | 1020.4 |
| 20260902160020 | 82 | 200 | 0.0 | 0.0 | 0.00 | 0.00 | 0.00 | 80 | 1020.3 |
| 20260902154520 | 82 | 200 | 0.0 | 0.0 | 0.00 | 0.00 | 0.00 | 79 | 1020.0 |
| 20260902153021 | 81 | 203 | 0.0 | 0.0 | 0.00 | 0.00 | 0.00 | 80 | 1019.8 |
| 20260902151512 | 81 | 203 | 0.0 | 0.0 | 0.00 | 0.00 | 0.00 | 78 | 1019.8 |
| 20260902150023 | 81 | 203 | 0.0 | 0.0 | 0.00 | 0.00 | 0.00 | 81 | 1019.8 |
| 20260902144531 | 80 | 203 | 0.0 | 0.0 | 0.00 | 0.00 | 0.00 | 81 | 1019.8 |
| 20260902143027 | 79 | 203 | 0.0 | 0.0 | 0.00 | 0.00 | 0.00 | 83 | 1019.9 |
| 20260902141533 | 78 | 208 | 0.0 | 0.0 | 0.00 | 0.00 | 0.00 | 84 | 1020.0 |
| 20260902140027 | 77 | 208 | 0.0 | 0.0 | 0.00 | 0.00 | 0.00 | 83 | 1020.1 |
| 20260902134523 | 77 | 208 | 0.0 | 0.0 | 0.00 | 0.00 | 0.00 | 85 | 1019.9 |
| 20260902133031 | 76 | 209 | 0.0 | 0.0 | 0.00 | 0.00 | 0.00 | 88 | 1019.7 |
| 20260902131527 | 74 | 209 | 0.0 | 0.0 | 0.00 | 0.00 | 0.00 | 90 | 1019.8 |
| 20260902130033 | 73 | 209 | 0.0 | 0.0 | 0.00 | 0.00 | 0.00 | 91 | 1019.7 |
| 20260902124528 | 72 | 209 | 0.0 | 0.0 | 0.00 | 0.00 | 0.00 | 92 | 1019.5 |
| 20260902123025 | 71 | 209 | 0.0 | 0.0 | 0.00 | 0.00 | 0.00 | 92 | 1019.4 |
| 20260902121520 | 71 | 209 | 0.0 | 0.0 | 0.00 | 0.00 | 0.00 | 92 | 1019.4 |
| 20260902120029 | 70 | 209 | 0.0 | 0.0 | 0.00 | 0.00 | 0.00 | 92 | 1019.4 |
| 20260902114531 | 70 | 209 | 0.0 | 0.0 | 0.00 | 0.00 | 0.00 | 92 | 1019.3 |
| 20260902113033 | 69 | 209 | 0.0 | 0.0 | 0.00 | 0.00 | 0.00 | 92 | 1019.5 |
| 20260902111529 | 70 | 209 | 0.0 | 0.0 | 0.00 | 0.00 | 0.00 | 92 | 1019.3 |
| 20260902110008 | 69 | 209 | 0.0 | 0.0 | 0.00 | 0.00 | 0.00 | 92 | 1019.2 |
| 20260902104505 | 69 | 216 | 0.0 | 0.0 | 0.00 | 0.00 | 0.00 | 92 | 1019.2 |